| time (UTC) | temp F | wind direction | speed knots | gust knots | rain 1hr in | rain 24hr in | rain mn in | humidity % | barometer mb |
| 20260508025502 | 46 | 288 | 0.0 | 1.7 | 0.00 | 0.00 | 0.00 | 65 | 1007.7 |
| 20260508025001 | 46 | 288 | 0.0 | 0.0 | 0.00 | 0.00 | 0.00 | 64 | 1007.7 |
| 20260508024001 | 46 | 288 | 0.0 | 0.0 | 0.00 | 0.00 | 0.00 | 64 | 1007.8 |
| 20260508023501 | 46 | 288 | 0.0 | 0.0 | 0.00 | 0.00 | 0.00 | 65 | 1007.8 |
| 20260508023002 | 46 | 288 | 0.0 | 0.0 | 0.00 | 0.00 | 0.00 | 65 | 1007.8 |
| 20260508022001 | 47 | 288 | 0.9 | 1.7 | 0.00 | 0.00 | 0.00 | 63 | 1007.8 |
| 20260508021502 | 47 | 288 | 0.9 | 1.7 | 0.00 | 0.00 | 0.00 | 63 | 1007.9 |
| 20260508021002 | 47 | 288 | 0.9 | 1.7 | 0.00 | 0.00 | 0.00 | 62 | 1007.8 |
| 20260508020502 | 47 | 288 | 0.9 | 2.6 | 0.00 | 0.00 | 0.00 | 61 | 1007.8 |
| 20260508020005 | 47 | 288 | 1.7 | 2.6 | 0.00 | 0.00 | 0.00 | 61 | 1007.7 |
| 20260508015502 | 48 | 288 | 1.7 | 2.6 | 0.00 | 0.00 | 0.00 | 60 | 1007.7 |
| 20260508015001 | 48 | 288 | 0.9 | 2.6 | 0.00 | 0.00 | 0.00 | 60 | 1007.8 |
| 20260508014502 | 48 | 288 | 1.7 | 2.6 | 0.00 | 0.00 | 0.00 | 59 | 1007.8 |
| 20260508013502 | 48 | 300 | 0.9 | 2.6 | 0.00 | 0.00 | 0.00 | 59 | 1007.7 |
| 20260508013002 | 48 | 300 | 0.9 | 2.6 | 0.00 | 0.00 | 0.00 | 58 | 1007.7 |
| 20260508012002 | 48 | 300 | 0.9 | 1.7 | 0.00 | 0.00 | 0.00 | 58 | 1007.6 |
| 20260508011501 | 48 | 300 | 0.9 | 1.7 | 0.00 | 0.00 | 0.00 | 58 | 1007.6 |
| 20260508010501 | 48 | 300 | 0.9 | 1.7 | 0.00 | 0.00 | 0.00 | 58 | 1007.7 |
| 20260508010006 | 48 | 300 | 0.9 | 1.7 | 0.00 | 0.00 | 0.00 | 57 | 1007.7 |
| 20260508005501 | 48 | 300 | 0.9 | 1.7 | 0.00 | 0.00 | 0.00 | 57 | 1007.7 |
| 20260508005002 | 48 | 300 | 0.9 | 1.7 | 0.00 | 0.00 | 0.00 | 57 | 1007.6 |
| 20260508004502 | 48 | 300 | 0.9 | 2.6 | 0.00 | 0.00 | 0.00 | 57 | 1007.6 |
| 20260508004001 | 48 | 300 | 0.9 | 2.6 | 0.00 | 0.00 | 0.00 | 57 | 1007.4 |
| 20260508003502 | 48 | 300 | 0.9 | 1.7 | 0.00 | 0.00 | 0.00 | 56 | 1007.5 |
| 20260508003002 | 48 | 300 | 1.7 | 2.6 | 0.00 | 0.00 | 0.00 | 56 | 1007.3 |
| 20260508002502 | 49 | 300 | 0.9 | 2.6 | 0.00 | 0.00 | 0.00 | 56 | 1007.3 |
| 20260508002001 | 49 | 300 | 0.9 | 2.6 | 0.00 | 0.00 | 0.00 | 56 | 1007.2 |
| 20260508001503 | 49 | 300 | 1.7 | 2.6 | 0.00 | 0.00 | 0.00 | 55 | 1007.1 |
| 20260508001001 | 49 | 326 | 1.7 | 3.5 | 0.00 | 0.00 | 0.00 | 55 | 1007.1 |
| 20260508000502 | 49 | 328 | 2.6 | 6.1 | 0.00 | 0.00 | 0.00 | 54 | 1007.2 |
| 20260508000005 | 49 | 302 | 2.6 | 6.1 | 0.00 | 0.00 | 0.00 | 54 | 1007.2 |
| 20260507235502 | 50 | 322 | 3.5 | 7.0 | 0.00 | 0.00 | 0.00 | 53 | 1007.1 |
| 20260507235001 | 50 | 321 | 4.3 | 7.8 | 0.00 | 0.00 | 0.00 | 52 | 1007.1 |
| 20260507234501 | 50 | 339 | 4.3 | 7.8 | 0.00 | 0.00 | 0.00 | 51 | 1007.1 |
| 20260507234001 | 50 | 327 | 3.5 | 7.8 | 0.00 | 0.00 | 0.00 | 51 | 1007.0 |
| 20260507233501 | 50 | 288 | 3.5 | 7.0 | 0.00 | 0.00 | 0.00 | 51 | 1007.0 |
| 20260507233002 | 50 | 309 | 3.5 | 7.8 | 0.00 | 0.00 | 0.00 | 50 | 1007.1 |
| 20260507232501 | 51 | 298 | 4.3 | 8.7 | 0.00 | 0.00 | 0.00 | 50 | 1007.0 |
| 20260507232001 | 51 | 331 | 4.3 | 8.7 | 0.00 | 0.00 | 0.00 | 50 | 1007.0 |
| 20260507231502 | 51 | 284 | 5.2 | 12.2 | 0.00 | 0.00 | 0.00 | 49 | 1007.0 |
| 20260507231001 | 51 | 317 | 6.1 | 12.2 | 0.00 | 0.00 | 0.00 | 49 | 1007.0 |
| 20260507230501 | 51 | 324 | 6.1 | 11.3 | 0.00 | 0.00 | 0.00 | 48 | 1007.0 |
| 20260507230004 | 51 | 300 | 6.1 | 11.3 | 0.00 | 0.00 | 0.00 | 48 | 1007.0 |
| 20260507224502 | 51 | 286 | 5.2 | 10.4 | 0.00 | 0.00 | 0.00 | 48 | 1007.0 |
| 20260507223501 | 51 | 269 | 6.1 | 12.2 | 0.00 | 0.00 | 0.00 | 47 | 1006.9 |
| 20260507223002 | 51 | 302 | 6.1 | 11.3 | 0.00 | 0.00 | 0.00 | 47 | 1006.9 |
| 20260507222501 | 51 | 293 | 7.0 | 12.2 | 0.00 | 0.00 | 0.00 | 47 | 1007.0 |
| 20260507222001 | 51 | 276 | 7.0 | 12.2 | 0.00 | 0.00 | 0.00 | 47 | 1007.0 |
| 20260507221502 | 52 | 327 | 7.0 | 13.9 | 0.00 | 0.00 | 0.00 | 46 | 1006.8 |
| 20260507221001 | 52 | 297 | 7.0 | 14.8 | 0.00 | 0.00 | 0.00 | 45 | 1006.9 |
| 20260507220503 | 53 | 313 | 7.0 | 14.8 | 0.00 | 0.00 | 0.00 | 45 | 1006.9 |
| 20260507215002 | 52 | 318 | 7.8 | 12.2 | 0.00 | 0.00 | 0.00 | 48 | 1007.0 |
| 20260507213002 | 51 | 292 | 8.7 | 15.6 | 0.00 | 0.00 | 0.00 | 46 | 1006.9 |
| 20260507212502 | 52 | 259 | 8.7 | 15.6 | 0.00 | 0.00 | 0.00 | 46 | 1006.8 |
| 20260507212002 | 52 | 274 | 8.7 | 19.1 | 0.00 | 0.00 | 0.00 | 45 | 1006.7 |
| 20260507211502 | 52 | 275 | 8.7 | 19.1 | 0.00 | 0.00 | 0.00 | 45 | 1006.7 |
| 20260507210501 | 52 | 279 | 8.7 | 14.8 | 0.00 | 0.00 | 0.00 | 46 | 1006.8 |
| 20260507210005 | 51 | 300 | 8.7 | 16.5 | 0.00 | 0.00 | 0.00 | 45 | 1006.8 |
| 20260507205001 | 51 | 301 | 7.0 | 14.8 | 0.00 | 0.00 | 0.00 | 47 | 1006.8 |
| 20260507204001 | 51 | 240 | 11.3 | 17.4 | 0.00 | 0.00 | 0.00 | 48 | 1006.9 |
| 20260507203501 | 51 | 286 | 11.3 | 18.2 | 0.00 | 0.00 | 0.00 | 48 | 1006.9 |
| 20260507203002 | 51 | 325 | 12.2 | 19.1 | 0.00 | 0.00 | 0.00 | 47 | 1006.8 |
| 20260507202501 | 51 | 296 | 10.4 | 19.1 | 0.00 | 0.00 | 0.00 | 48 | 1006.8 |
| 20260507202002 | 51 | 296 | 8.7 | 19.1 | 0.00 | 0.00 | 0.00 | 51 | 1006.8 |
| 20260507201502 | 51 | 288 | 11.3 | 19.1 | 0.00 | 0.00 | 0.00 | 50 | 1006.8 |
| 20260507201001 | 51 | 269 | 12.2 | 20.0 | 0.00 | 0.00 | 0.00 | 48 | 1006.9 |
| 20260507200501 | 52 | 287 | 11.3 | 24.3 | 0.00 | 0.00 | 0.00 | 47 | 1006.8 |
| 20260507200004 | 52 | 284 | 12.2 | 24.3 | 0.00 | 0.00 | 0.00 | 44 | 1006.7 |
| 20260507195501 | 52 | 254 | 13.0 | 22.6 | 0.00 | 0.00 | 0.00 | 47 | 1006.8 |
| 20260507195001 | 51 | 250 | 11.3 | 22.6 | 0.00 | 0.00 | 0.00 | 47 | 1006.8 |
| 20260507194002 | 51 | 293 | 10.4 | 20.0 | 0.00 | 0.00 | 0.00 | 48 | 1006.8 |
| 20260507193501 | 51 | 267 | 9.6 | 18.2 | 0.00 | 0.00 | 0.00 | 50 | 1006.8 |
| 20260507193002 | 51 | 272 | 9.6 | 16.5 | 0.00 | 0.00 | 0.00 | 51 | 1006.9 |
| 20260507192501 | 51 | 270 | 9.6 | 16.5 | 0.00 | 0.00 | 0.00 | 51 | 1006.9 |
| 20260507192001 | 51 | 299 | 10.4 | 21.7 | 0.00 | 0.00 | 0.00 | 52 | 1006.8 |
| 20260507191502 | 52 | 334 | 11.3 | 24.3 | 0.00 | 0.00 | 0.00 | 48 | 1006.7 |
| 20260507191001 | 53 | 298 | 10.4 | 24.3 | 0.00 | 0.00 | 0.00 | 46 | 1006.6 |
| 20260507190502 | 53 | 292 | 10.4 | 20.9 | 0.00 | 0.00 | 0.00 | 47 | 1006.8 |
| 20260507190004 | 52 | 246 | 8.7 | 20.9 | 0.00 | 0.00 | 0.00 | 45 | 1006.8 |
| 20260507185500 | 52 | 250 | 8.7 | 18.2 | 0.00 | 0.00 | 0.00 | 49 | 1006.7 |
| 20260507185000 | 51 | 294 | 10.4 | 18.2 | 0.00 | 0.00 | 0.00 | 49 | 1006.8 |
| 20260507184501 | 52 | 263 | 10.4 | 16.5 | 0.00 | 0.00 | 0.00 | 49 | 1006.9 |
| 20260507183000 | 51 | 269 | 10.4 | 16.5 | 0.00 | 0.00 | 0.00 | 46 | 1006.9 |
| 20260507182501 | 51 | 223 | 11.3 | 22.6 | 0.00 | 0.00 | 0.00 | 47 | 1006.8 |
| 20260507182000 | 51 | 284 | 12.2 | 22.6 | 0.00 | 0.00 | 0.00 | 47 | 1006.9 |
| 20260507181000 | 51 | 256 | 8.7 | 24.3 | 0.00 | 0.00 | 0.00 | 45 | 1006.8 |
| 20260507180503 | 52 | 265 | 8.7 | 24.3 | 0.00 | 0.00 | 0.00 | 46 | 1006.7 |
| 20260507180006 | 52 | 277 | 10.4 | 20.9 | 0.00 | 0.00 | 0.00 | 46 | 1006.6 |
| 20260507175003 | 52 | 269 | 10.4 | 20.9 | 0.00 | 0.00 | 0.00 | 44 | 1006.6 |
| 20260507174503 | 52 | 248 | 10.4 | 24.3 | 0.00 | 0.00 | 0.00 | 45 | 1006.4 |
| 20260507174003 | 52 | 221 | 11.3 | 24.3 | 0.00 | 0.00 | 0.00 | 46 | 1006.5 |
| 20260507173503 | 51 | 305 | 12.2 | 23.5 | 0.00 | 0.00 | 0.00 | 45 | 1006.6 |
| 20260507173005 | 50 | 250 | 13.0 | 23.5 | 0.00 | 0.00 | 0.00 | 48 | 1006.6 |
| 20260507171504 | 51 | 269 | 9.6 | 15.6 | 0.00 | 0.00 | 0.00 | 49 | 1006.5 |
| 20260507171005 | 50 | 277 | 11.3 | 21.7 | 0.00 | 0.00 | 0.00 | 50 | 1006.7 |
| 20260507170503 | 50 | 271 | 12.2 | 24.3 | 0.00 | 0.00 | 0.00 | 49 | 1006.8 |
| 20260507170006 | 50 | 300 | 12.2 | 24.3 | 0.00 | 0.00 | 0.00 | 47 | 1006.8 |
| 20260507165503 | 52 | 253 | 11.3 | 21.7 | 0.00 | 0.00 | 0.00 | 48 | 1006.8 |
| 20260507164503 | 51 | 253 | 12.2 | 21.7 | 0.00 | 0.00 | 0.00 | 47 | 1006.8 |
| 20260507164003 | 51 | 275 | 13.0 | 27.8 | 0.00 | 0.00 | 0.00 | 48 | 1006.9 |
| 20260507163503 | 50 | 263 | 13.0 | 27.8 | 0.00 | 0.00 | 0.00 | 48 | 1006.9 |
| 20260507163003 | 50 | 300 | 12.2 | 24.3 | 0.00 | 0.00 | 0.00 | 49 | 1007.1 |
| 20260507162503 | 51 | 223 | 12.2 | 22.6 | 0.00 | 0.00 | 0.00 | 48 | 1006.9 |
| 20260507162003 | 51 | 281 | 11.3 | 22.6 | 0.00 | 0.00 | 0.00 | 47 | 1007.0 |
| 20260507161503 | 50 | 298 | 12.2 | 26.1 | 0.00 | 0.00 | 0.00 | 49 | 1007.1 |
| 20260507161003 | 50 | 281 | 13.9 | 26.1 | 0.00 | 0.00 | 0.00 | 50 | 1007.1 |
| 20260507160503 | 50 | 192 | 13.9 | 26.1 | 0.00 | 0.00 | 0.00 | 48 | 1007.1 |
| 20260507160005 | 51 | 255 | 13.9 | 25.2 | 0.00 | 0.00 | 0.00 | 48 | 1007.2 |
| 20260507155003 | 50 | 220 | 11.3 | 22.6 | 0.00 | 0.02 | 0.00 | 51 | 1007.1 |
| 20260507154503 | 50 | 261 | 11.3 | 22.6 | 0.00 | 0.02 | 0.00 | 50 | 1007.2 |
| 20260507154002 | 50 | 238 | 12.2 | 23.5 | 0.00 | 0.02 | 0.00 | 51 | 1007.1 |
| 20260507153504 | 50 | 269 | 13.0 | 23.5 | 0.00 | 0.02 | 0.00 | 52 | 1006.9 |
| 20260507153003 | 50 | 242 | 12.2 | 28.7 | 0.00 | 0.02 | 0.00 | 52 | 1006.9 |
| 20260507152503 | 50 | 284 | 11.3 | 28.7 | 0.00 | 0.02 | 0.00 | 54 | 1006.7 |
| 20260507152003 | 50 | 267 | 12.2 | 20.9 | 0.00 | 0.02 | 0.00 | 58 | 1007.0 |
| 20260507151504 | 49 | 211 | 11.3 | 20.9 | 0.00 | 0.02 | 0.00 | 57 | 1007.0 |
| 20260507151003 | 50 | 262 | 10.4 | 21.7 | 0.00 | 0.02 | 0.00 | 57 | 1006.9 |
| 20260507150503 | 49 | 236 | 10.4 | 19.1 | 0.00 | 0.02 | 0.00 | 58 | 1006.8 |
| 20260507150006 | 49 | 260 | 11.3 | 20.9 | 0.00 | 0.02 | 0.00 | 58 | 1006.8 |
| 20260507145503 | 49 | 248 | 11.3 | 20.9 | 0.00 | 0.07 | 0.00 | 58 | 1006.9 |
| 20260507144503 | 48 | 309 | 9.6 | 16.5 | 0.00 | 0.07 | 0.00 | 59 | 1006.9 |
| 20260507143503 | 48 | 244 | 10.4 | 21.7 | 0.00 | 0.07 | 0.00 | 59 | 1006.9 |
| 20260507143003 | 48 | 273 | 9.6 | 20.9 | 0.00 | 0.07 | 0.00 | 61 | 1007.1 |
| 20260507142503 | 47 | 267 | 10.4 | 17.4 | 0.00 | 0.07 | 0.00 | 59 | 1007.0 |
| 20260507142003 | 47 | 228 | 10.4 | 17.4 | 0.00 | 0.07 | 0.00 | 61 | 1007.1 |
| 20260507141503 | 47 | 286 | 9.6 | 16.5 | 0.00 | 0.07 | 0.00 | 60 | 1007.0 |
| 20260507141003 | 47 | 269 | 8.7 | 16.5 | 0.00 | 0.07 | 0.00 | 60 | 1007.0 |
| 20260507140503 | 47 | 224 | 8.7 | 16.5 | 0.00 | 0.07 | 0.00 | 60 | 1007.0 |
| 20260507140006 | 47 | 225 | 8.7 | 22.6 | 0.00 | 0.07 | 0.00 | 61 | 1007.0 |
| 20260507135503 | 47 | 307 | 9.6 | 22.6 | 0.00 | 0.13 | 0.00 | 61 | 1007.0 |
| 20260507135003 | 46 | 239 | 10.4 | 17.4 | 0.00 | 0.13 | 0.00 | 60 | 1007.0 |
| 20260507134503 | 46 | 292 | 10.4 | 21.7 | 0.00 | 0.13 | 0.00 | 60 | 1007.0 |
| 20260507134003 | 47 | 346 | 8.7 | 21.7 | 0.00 | 0.13 | 0.00 | 61 | 1007.0 |
| 20260507133503 | 47 | 270 | 7.8 | 17.4 | 0.00 | 0.13 | 0.00 | 62 | 1007.0 |
| 20260507133004 | 46 | 302 | 7.8 | 17.4 | 0.00 | 0.13 | 0.00 | 61 | 1006.9 |
| 20260507132503 | 46 | 220 | 8.7 | 17.4 | 0.00 | 0.13 | 0.00 | 62 | 1006.9 |
| 20260507132004 | 46 | 229 | 9.6 | 18.2 | 0.00 | 0.13 | 0.00 | 62 | 1007.0 |
| 20260507131504 | 46 | 220 | 10.4 | 18.2 | 0.00 | 0.13 | 0.00 | 62 | 1007.0 |
| 20260507131003 | 45 | 279 | 10.4 | 17.4 | 0.00 | 0.13 | 0.00 | 62 | 1007.1 |
| 20260507130503 | 46 | 239 | 8.7 | 15.6 | 0.00 | 0.13 | 0.00 | 61 | 1007.1 |
| 20260507125503 | 46 | 257 | 8.7 | 16.5 | 0.00 | 0.16 | 0.00 | 62 | 1007.0 |
| 20260507125003 | 46 | 300 | 7.8 | 15.6 | 0.00 | 0.16 | 0.00 | 63 | 1007.1 |
| 20260507124504 | 46 | 280 | 7.8 | 13.9 | 0.00 | 0.16 | 0.00 | 63 | 1007.2 |
| 20260507123503 | 45 | 296 | 9.6 | 16.5 | 0.00 | 0.16 | 0.00 | 63 | 1007.1 |
| 20260507123004 | 45 | 237 | 9.6 | 18.2 | 0.00 | 0.16 | 0.00 | 64 | 1007.1 |
| 20260507122503 | 45 | 269 | 7.8 | 18.2 | 0.00 | 0.16 | 0.00 | 63 | 1007.1 |
| 20260507122003 | 45 | 258 | 7.0 | 15.6 | 0.00 | 0.16 | 0.00 | 63 | 1007.2 |
| 20260507121503 | 45 | 228 | 7.8 | 12.2 | 0.00 | 0.16 | 0.00 | 64 | 1007.2 |
| 20260507121003 | 44 | 248 | 7.8 | 14.8 | 0.00 | 0.16 | 0.00 | 65 | 1007.2 |
| 20260507120503 | 44 | 234 | 7.8 | 14.8 | 0.00 | 0.16 | 0.00 | 65 | 1007.2 |
| 20260507120006 | 44 | 242 | 7.8 | 13.9 | 0.00 | 0.16 | 0.00 | 65 | 1007.2 |
| 20260507115003 | 44 | 246 | 8.7 | 15.6 | 0.00 | 0.19 | 0.00 | 67 | 1007.3 |
| 20260507114503 | 44 | 225 | 9.6 | 16.5 | 0.00 | 0.19 | 0.00 | 67 | 1007.2 |
| 20260507114003 | 44 | 224 | 7.0 | 16.5 | 0.00 | 0.19 | 0.00 | 67 | 1007.3 |
| 20260507113503 | 44 | 297 | 6.1 | 11.3 | 0.00 | 0.19 | 0.00 | 68 | 1007.3 |
| 20260507113006 | 44 | 212 | 7.0 | 15.6 | 0.00 | 0.19 | 0.00 | 69 | 1007.2 |
| 20260507112503 | 43 | 300 | 8.7 | 15.6 | 0.00 | 0.19 | 0.00 | 69 | 1007.1 |
| 20260507112004 | 43 | 267 | 7.8 | 13.0 | 0.00 | 0.19 | 0.00 | 70 | 1007.2 |
| 20260507111504 | 43 | 225 | 7.0 | 14.8 | 0.00 | 0.19 | 0.00 | 70 | 1007.2 |
| 20260507110503 | 43 | 242 | 7.8 | 13.9 | 0.00 | 0.19 | 0.00 | 70 | 1007.2 |
| 20260507110005 | 43 | 248 | 7.8 | 13.0 | 0.00 | 0.19 | 0.00 | 70 | 1007.1 |
| 20260507105503 | 43 | 237 | 8.7 | 13.0 | 0.00 | 0.22 | 0.00 | 71 | 1007.1 |
| 20260507105003 | 43 | 242 | 8.7 | 17.4 | 0.00 | 0.22 | 0.00 | 71 | 1006.9 |
| 20260507104504 | 44 | 229 | 7.8 | 17.4 | 0.00 | 0.22 | 0.00 | 72 | 1006.9 |
| 20260507104003 | 44 | 229 | 7.0 | 15.6 | 0.00 | 0.22 | 0.00 | 75 | 1006.8 |
| 20260507102503 | 44 | 240 | 6.1 | 10.4 | 0.00 | 0.22 | 0.00 | 77 | 1006.4 |
| 20260507102003 | 44 | 277 | 6.1 | 13.0 | 0.00 | 0.22 | 0.00 | 77 | 1006.2 |
| 20260507101503 | 44 | 229 | 5.2 | 13.0 | 0.00 | 0.22 | 0.00 | 78 | 1006.3 |
| 20260507101003 | 44 | 229 | 5.2 | 10.4 | 0.00 | 0.22 | 0.00 | 79 | 1006.2 |
| 20260507100503 | 44 | 211 | 5.2 | 9.6 | 0.00 | 0.22 | 0.00 | 79 | 1006.3 |
| 20260507100005 | 44 | 210 | 5.2 | 10.4 | 0.00 | 0.22 | 0.00 | 79 | 1006.2 |
| 20260507095504 | 45 | 250 | 5.2 | 10.4 | 0.00 | 0.23 | 0.00 | 81 | 1006.2 |
| 20260507094503 | 45 | 242 | 5.2 | 10.4 | 0.00 | 0.23 | 0.00 | 84 | 1006.3 |
| 20260507094004 | 45 | 239 | 5.2 | 10.4 | 0.00 | 0.23 | 0.00 | 84 | 1006.4 |
| 20260507093504 | 45 | 192 | 6.1 | 12.2 | 0.00 | 0.23 | 0.00 | 85 | 1006.4 |
| 20260507093004 | 45 | 231 | 7.0 | 13.0 | 0.00 | 0.23 | 0.00 | 85 | 1006.6 |
| 20260507092003 | 45 | 258 | 7.0 | 14.8 | 0.00 | 0.23 | 0.00 | 87 | 1006.4 |
| 20260507091003 | 45 | 214 | 5.2 | 13.9 | 0.00 | 0.23 | 0.00 | 88 | 1006.4 |
| 20260507090503 | 45 | 260 | 6.1 | 10.4 | 0.00 | 0.23 | 0.00 | 89 | 1006.3 |
| 20260507090006 | 45 | 199 | 5.2 | 10.4 | 0.00 | 0.23 | 0.00 | 89 | 1006.2 |
| 20260507085504 | 45 | 235 | 5.2 | 11.3 | 0.00 | 0.23 | 0.00 | 89 | 1006.3 |
| 20260507085003 | 45 | 233 | 6.1 | 12.2 | 0.00 | 0.23 | 0.00 | 89 | 1006.2 |
| 20260507084503 | 45 | 242 | 5.2 | 12.2 | 0.00 | 0.23 | 0.00 | 89 | 1006.2 |
| 20260507084003 | 45 | 210 | 6.1 | 12.2 | 0.00 | 0.23 | 0.00 | 89 | 1006.1 |
| 20260507083504 | 45 | 286 | 6.1 | 12.2 | 0.00 | 0.23 | 0.00 | 89 | 1006.1 |
| 20260507083004 | 45 | 228 | 5.2 | 9.6 | 0.00 | 0.23 | 0.00 | 89 | 1006.1 |
| 20260507082503 | 45 | 200 | 5.2 | 11.3 | 0.00 | 0.23 | 0.00 | 89 | 1006.1 |
| 20260507082003 | 45 | 201 | 5.2 | 11.3 | 0.00 | 0.23 | 0.00 | 89 | 1006.1 |
| 20260507081504 | 45 | 219 | 5.2 | 8.7 | 0.00 | 0.23 | 0.00 | 88 | 1006.1 |
| 20260507081002 | 45 | 190 | 4.3 | 8.7 | 0.00 | 0.23 | 0.00 | 88 | 1006.2 |
| 20260507080502 | 45 | 180 | 4.3 | 9.6 | 0.00 | 0.23 | 0.00 | 88 | 1006.2 |
| 20260507080005 | 45 | 199 | 5.2 | 10.4 | 0.00 | 0.23 | 0.00 | 88 | 1006.3 |
| 20260507075502 | 45 | 223 | 6.1 | 13.0 | 0.00 | 0.23 | 0.00 | 88 | 1006.3 |
| 20260507075002 | 45 | 234 | 6.1 | 13.0 | 0.00 | 0.23 | 0.00 | 88 | 1006.4 |
| 20260507074503 | 45 | 218 | 4.3 | 12.2 | 0.00 | 0.23 | 0.00 | 88 | 1006.4 |
| 20260507073003 | 45 | 223 | 4.3 | 12.2 | 0.00 | 0.23 | 0.00 | 87 | 1006.4 |
| 20260507072503 | 45 | 236 | 4.3 | 9.6 | 0.00 | 0.23 | 0.00 | 87 | 1006.5 |
| 20260507072002 | 45 | 225 | 4.3 | 9.6 | 0.00 | 0.23 | 0.00 | 88 | 1006.5 |
| 20260507071504 | 45 | 225 | 3.5 | 7.0 | 0.00 | 0.23 | 0.00 | 87 | 1006.4 |
| 20260507070503 | 45 | 198 | 3.5 | 7.8 | 0.00 | 0.23 | 0.00 | 87 | 1006.6 |
| 20260507070009 | 44 | 202 | 3.5 | 9.6 | 0.00 | 0.23 | 0.00 | 87 | 1006.6 |
| 20260507065002 | 44 | 221 | 3.5 | 7.8 | 0.00 | 0.23 | 0.00 | 87 | 1006.6 |
| 20260507063502 | 44 | 219 | 3.5 | 7.8 | 0.00 | 0.23 | 0.00 | 87 | 1006.7 |
| 20260507063002 | 44 | 231 | 3.5 | 7.0 | 0.00 | 0.23 | 0.00 | 87 | 1006.8 |
| 20260507062501 | 45 | 256 | 3.5 | 7.0 | 0.00 | 0.23 | 0.00 | 87 | 1006.7 |
| 20260507062002 | 44 | 174 | 3.5 | 6.1 | 0.00 | 0.23 | 0.00 | 87 | 1006.8 |
| 20260507061502 | 44 | 200 | 3.5 | 6.1 | 0.00 | 0.23 | 0.00 | 87 | 1006.8 |
| 20260507060501 | 45 | 166 | 2.6 | 4.3 | 0.00 | 0.23 | 0.00 | 86 | 1006.8 |
| 20260507060004 | 45 | 163 | 2.6 | 4.3 | 0.00 | 0.23 | 0.00 | 86 | 1006.8 |
| 20260507055002 | 45 | 193 | 2.6 | 5.2 | 0.00 | 0.23 | 0.00 | 86 | 1007.0 |
| 20260507054502 | 45 | 150 | 2.6 | 5.2 | 0.00 | 0.23 | 0.00 | 86 | 1007.0 |
| 20260507054002 | 45 | 159 | 2.6 | 4.3 | 0.00 | 0.23 | 0.00 | 86 | 1007.1 |
| 20260507053502 | 45 | 145 | 2.6 | 4.3 | 0.00 | 0.23 | 0.00 | 87 | 1007.1 |
| 20260507053002 | 45 | 160 | 2.6 | 3.5 | 0.00 | 0.23 | 0.00 | 87 | 1007.1 |
| 20260507052501 | 45 | 168 | 2.6 | 6.1 | 0.00 | 0.23 | 0.00 | 87 | 1007.1 |
| 20260507051502 | 44 | 146 | 1.7 | 3.5 | 0.00 | 0.23 | 0.00 | 87 | 1007.1 |
| 20260507051002 | 45 | 158 | 1.7 | 5.2 | 0.00 | 0.23 | 0.00 | 87 | 1007.2 |
| 20260507050502 | 45 | 162 | 2.6 | 6.1 | 0.00 | 0.23 | 0.00 | 87 | 1007.3 |
| 20260507050006 | 45 | 142 | 2.6 | 6.1 | 0.00 | 0.23 | 0.00 | 88 | 1007.3 |
| 20260507045504 | 44 | 150 | 2.6 | 4.3 | 0.00 | 0.23 | 0.00 | 88 | 1007.5 |
| 20260507045004 | 45 | 169 | 3.5 | 6.1 | 0.00 | 0.23 | 0.00 | 88 | 1007.6 |
| 20260507044505 | 45 | 135 | 3.5 | 6.1 | 0.00 | 0.23 | 0.00 | 88 | 1007.6 |
| 20260507044004 | 44 | 159 | 3.5 | 6.1 | 0.00 | 0.23 | 0.00 | 88 | 1007.7 |
| 20260507043504 | 44 | 140 | 2.6 | 5.2 | 0.00 | 0.23 | 0.00 | 88 | 1007.8 |
| 20260507043004 | 44 | 178 | 2.6 | 4.3 | 0.00 | 0.23 | 0.00 | 88 | 1007.8 |
| 20260507042504 | 44 | 163 | 2.6 | 4.3 | 0.00 | 0.23 | 0.00 | 88 | 1007.9 |
| 20260507042004 | 45 | 147 | 3.5 | 6.1 | 0.00 | 0.23 | 0.00 | 88 | 1007.9 |
| 20260507040504 | 45 | 180 | 2.6 | 5.2 | 0.00 | 0.23 | 0.00 | 88 | 1008.0 |
| 20260507040008 | 45 | 155 | 2.6 | 4.3 | 0.00 | 0.23 | 0.00 | 87 | 1008.0 |
| 20260507035504 | 45 | 152 | 2.6 | 4.3 | 0.00 | 0.23 | 0.23 | 87 | 1008.0 |
| 20260507035004 | 45 | 165 | 2.6 | 4.3 | 0.00 | 0.23 | 0.23 | 87 | 1008.1 |
| 20260507034505 | 45 | 176 | 2.6 | 4.3 | 0.00 | 0.23 | 0.23 | 87 | 1008.0 |
| 20260507034004 | 45 | 150 | 2.6 | 5.2 | 0.00 | 0.23 | 0.23 | 87 | 1008.1 |
| 20260507033505 | 45 | 187 | 2.6 | 6.1 | 0.00 | 0.23 | 0.23 | 87 | 1008.1 |
| 20260507032005 | 45 | 178 | 2.6 | 4.3 | 0.00 | 0.23 | 0.23 | 87 | 1008.2 |
| 20260507031504 | 45 | 156 | 2.6 | 5.2 | 0.00 | 0.23 | 0.23 | 86 | 1008.3 |
| 20260507030007 | 45 | 172 | 3.5 | 4.3 | 0.00 | 0.23 | 0.23 | 86 | 1008.3 |